Tracking 17842 objects as of 30-August-2016
HD Live streaming from Space Station
objects crossing your sky now

GSAT 3 (EDUSAT)

Track GSAT 3 (EDUSAT) now!
GSAT 3 (EDUSAT) is classified as:


NORAD ID: 28417
Int'l Code: 2004-036A
Perigee: 36,059.0 km
Apogee: 36,094.4 km
Inclination: 4.6 °
Period: 1,450.6 minutes
Semi major axis: 42447 km
RCS: 15.8866 m2 (large)
Launch date: September 20, 2004
Source: India (IND)
Launch site: SIRHARIKOTA (SRI)

Interactive education for remote areas of India; 6 C-band and 6 Ku-band transponders; first satellite dedicated to education.
Your satellite tracking list
Your tracking list is empty





NASA's NSSDC Master Catalog

Two Line Element Set (TLE):
1 28417U 04036A   16242.70037476 -.00000207 +00000-0 +00000-0 0  9994
2 28417 004.6471 063.5852 0004174 120.8785 220.2216 00.99270859043586
Source of the keplerian elements: AFSPC

N2YO: 477